User: anonymous   Login
Location: Table Mountain
(47.2500°N, 120.5778°W)
Time: 10:27:03
(UTC-07:00)
Language:

Hubble Space Telescope - Orbit

View from above orbital plane
View from above orbital plane
View from above satellite
View from above satellite

Ground track
Ground track

The orbit data is extracted from the following two-line orbital elements,

1 20580U 90037B   17295.19198115  .00000720  00000-0  33383-4 0  9996
2 20580  28.4694 248.2328 0002960  99.8904 220.4406 15.08894203309487
Epoch (UTC): 22 October 2017 04:36:27
Eccentricity: 0.0002960
inclination: 28.4694°
perigee height: 537 km
apogee height: 541 km
right ascension of ascending node: 248.2328°
argument of perigee: 99.8904°
revolutions per day: 15.08894203
mean anomaly at epoch: 220.4406°
orbit number at epoch: 30948

The dashed part of the orbit path shows where the satellite is in the earth's shadow,  

DLR